Detroit Metro, MI

2:16 PM EST on December 11, 2017 (GMT -0500)
Detroit Metro Wayne County

Weather History for KDTW - March, 2013

Change the Weather History Date:

Friday, March 1, 2013

  Actual Average Record
Temperature  
Mean Temperature 29 °F 32 °F  
Max Temperature 31 °F 40 °F 64 °F (1992)
Min Temperature 26 °F 24 °F 1 °F (1962)
Degree Days  
Heating Degree Days 36 33  
Month to date heating degree days 36 33  
Since 1 July heating degree days 4321 4586  
Cooling Degree Days 0 0  
Month to date cooling degree days 0 0  
Year to date cooling degree days 0 0  
Moisture  
Dew Point 20 °F    
Average Humidity 72    
Maximum Humidity 75    
Minimum Humidity 68    
Precipitation  
Precipitation T in 0.07 in 1.29 in (2007)
Month to date precipitation T 0.07  
Year to date precipitation 6.28 4.05  
Snow  
Snow T in 0.30 in 6.20 in (1976)
Month to date snowfall T 0.3  
Since 1 July snowfall 44.5 34.2  
Snow Depth 2.00 in    
Sea Level Pressure  
Sea Level Pressure 30.05 in    
Wind  
Wind Speed 12 mph (NNW)    
Max Wind Speed 18 mph    
Max Gust Speed 23 mph    
Visibility 9 miles    
Events Snow    
T = Trace of Precipitation, MM = Missing Value Source: NWS Daily Summary

Daily Weather History Graph

Daily Weather History Graph

Search for Another Location

Airport or City:

Trip Planner

Search our weather history database for the weather conditions in past years. The results will help you decide how hot, cold, wet, or windy it might be!

Date:

Astronomy

Mar. 01, 2013 Rise Set
Actual Time 7:08 AM EST 6:23 PM EST
Civil Twilight 6:40 AM EST 6:51 PM EST
Nautical Twilight 6:07 AM EST 7:24 PM EST
Astronomical Twilight 5:35 AM EST 7:56 PM EST
Moon 11:02 PM EST (3/1) 8:48 AM EST (3/1)
Length of Visible Light 12h 11m
Length of Day
11h 15m
Waning Gibbous, 83% of the Moon is Illuminated
Mar 1
Waning Gibbous
Mar 4
Last Quarter
Mar 11
New
Mar 19
First Quarter
Mar 27
Full

Hourly Weather History & Observations

Time (EST) Temp. Windchill Dew Point Humidity Pressure Visibility Wind Dir Wind Speed Gust Speed Precip Events Conditions
12:53 AM 30.9 °F 21.7 °F 23.0 °F 72% 29.97 in 8.0 mi NNW 11.5 mph - 0.00 in Snow Light Snow
1:38 AM 30.2 °F 20.8 °F 23.0 °F 75% 29.96 in 8.0 mi NNW 11.5 mph - 0.00 in Snow Light Snow
1:53 AM 30.9 °F 23.5 °F 23.0 °F 72% 29.98 in 8.0 mi NNW 8.1 mph - 0.00 in Snow Light Snow
2:48 AM 30.2 °F 20.8 °F 23.0 °F 75% 29.96 in 8.0 mi NNW 11.5 mph - 0.00 in Snow Light Snow
2:53 AM 30.0 °F 21.1 °F 23.0 °F 75% 29.98 in 8.0 mi NNW 10.4 mph - 0.00 in Snow Light Snow
3:53 AM 30.0 °F 20.5 °F 21.9 °F 72% 29.99 in 9.0 mi NNW 11.5 mph - 0.00 in Snow Light Snow
4:53 AM 30.0 °F 20.5 °F 21.9 °F 72% 30.00 in 9.0 mi North 11.5 mph - 0.00 in   Overcast
5:53 AM 28.9 °F 19.2 °F 21.0 °F 72% 30.01 in 8.0 mi North 11.5 mph - 0.00 in Snow Light Snow
6:53 AM 28.4 °F 19.1 °F 19.4 °F 69% 29.99 in 8.0 mi North 10.4 mph - N/A Snow Light Snow
7:53 AM 28.0 °F 17.0 °F 19.0 °F 69% 30.03 in 10.0 mi NNW 13.8 mph - 0.00 in   Overcast
8:53 AM 28.0 °F 17.5 °F 19.0 °F 69% 30.06 in 10.0 mi NNW 12.7 mph - N/A   Overcast
9:53 AM 28.0 °F 17.0 °F 19.0 °F 69% 30.07 in 8.0 mi NNW 13.8 mph 18.4 mph 0.00 in Snow Light Snow
10:53 AM 28.0 °F 16.5 °F 19.0 °F 69% 30.08 in 9.0 mi North 15.0 mph - 0.00 in   Overcast
11:53 AM 28.0 °F 17.0 °F 19.0 °F 69% 30.08 in 10.0 mi NNW 13.8 mph - N/A   Overcast
12:53 PM 28.0 °F 18.6 °F 19.0 °F 69% 30.08 in 10.0 mi NW 10.4 mph - N/A   Overcast
1:53 PM 28.0 °F 17.5 °F 19.0 °F 69% 30.07 in 10.0 mi NNW 12.7 mph - 0.00 in   Overcast
2:53 PM 28.0 °F 18.6 °F 19.0 °F 69% 30.06 in 10.0 mi NNW 10.4 mph - N/A   Overcast
3:53 PM 27.0 °F 17.3 °F 19.0 °F 72% 30.07 in 10.0 mi NNW 10.4 mph - N/A   Overcast
4:53 PM 27.0 °F 16.1 °F 19.9 °F 75% 30.08 in 10.0 mi NNW 12.7 mph - N/A   Overcast
5:53 PM 27.0 °F 16.7 °F 19.0 °F 72% 30.09 in 9.0 mi NNW 11.5 mph - 0.00 in Snow Light Snow
6:53 PM 27.0 °F 17.3 °F 19.0 °F 72% 30.11 in 10.0 mi NNW 10.4 mph - 0.00 in   Overcast
7:53 PM 27.0 °F 16.7 °F 19.0 °F 72% 30.11 in 9.0 mi NNW 11.5 mph - 0.00 in Snow Light Snow
8:53 PM 27.0 °F 16.7 °F 19.0 °F 72% 30.12 in 9.0 mi NNW 11.5 mph - 0.00 in Snow Light Snow
9:53 PM 27.0 °F 16.1 °F 19.0 °F 72% 30.12 in 9.0 mi NNW 12.7 mph - 0.00 in Snow Light Snow
10:53 PM 27.0 °F 16.1 °F 18.0 °F 69% 30.12 in 9.0 mi North 12.7 mph - 0.00 in Snow Light Snow
11:53 PM 26.1 °F 16.8 °F 18.0 °F 71% 30.11 in 9.0 mi NW 9.2 mph - 0.00 in Snow Light Snow